TimeEST,TemperatureF,Dew PointF,Humidity,Sea Level PressureIn,VisibilityMPH,Wind Direction,Wind SpeedMPH,Gust SpeedMPH,PrecipitationIn,Events,Conditions,WindDirDegrees,DateUTC
12:56 AM,66.9,63.0,87,29.81,10.0,SW,8.1,-,N/A,,Scattered Clouds,220,2012-12-11 05:56:00
1:56 AM,66.0,63.0,90,29.81,10.0,SW,5.8,-,N/A,,Clear,220,2012-12-11 06:56:00
2:56 AM,64.9,63.0,93,29.82,10.0,SSW,3.5,-,N/A,,Clear,200,2012-12-11 07:56:00
3:56 AM,64.9,62.1,90,29.84,8.0,Calm,Calm,-,N/A,,Partly Cloudy,0,2012-12-11 08:56:00
4:56 AM,64.0,62.1,93,29.85,7.0,Calm,Calm,-,N/A,,Clear,0,2012-12-11 09:56:00
5:36 AM,64.4,62.6,94,29.86,7.0,Calm,Calm,-,N/A,,Overcast,0,2012-12-11 10:36:00
5:56 AM,64.9,63.0,93,29.87,8.0,Calm,Calm,-,N/A,,Overcast,0,2012-12-11 10:56:00
6:37 AM,64.4,62.6,94,29.89,4.0,Variable,3.5,-,N/A,,Overcast,0,2012-12-11 11:37:00
6:56 AM,66.0,63.0,90,29.90,4.0,SW,6.9,-,N/A,,Overcast,230,2012-12-11 11:56:00
7:56 AM,66.0,64.0,93,29.93,3.0,NW,4.6,-,N/A,,Overcast,320,2012-12-11 12:56:00
8:31 AM,66.2,62.6,88,29.94,10.0,NW,6.9,-,N/A,,Overcast,310,2012-12-11 13:31:00
8:56 AM,66.9,61.0,81,29.96,5.0,NW,3.5,-,N/A,,Overcast,320,2012-12-11 13:56:00
9:56 AM,66.9,60.1,79,29.97,5.0,Calm,Calm,-,N/A,,Overcast,0,2012-12-11 14:56:00
10:56 AM,66.9,61.0,81,29.98,6.0,Calm,Calm,-,N/A,,Haze,0,2012-12-11 15:56:00
11:03 AM,66.2,60.8,83,29.98,10.0,Calm,Calm,-,N/A,,Overcast,0,2012-12-11 16:03:00
11:54 AM,69.8,60.8,73,29.96,10.0,NNW,3.5,-,N/A,,Overcast,330,2012-12-11 16:54:00
11:56 AM,69.1,60.1,73,29.97,10.0,NNW,4.6,-,N/A,,Overcast,330,2012-12-11 16:56:00
12:31 PM,68.0,60.8,78,29.96,10.0,NW,3.5,-,N/A,,Overcast,310,2012-12-11 17:31:00
12:56 PM,69.1,60.1,73,29.96,10.0,WNW,3.5,-,N/A,,Overcast,300,2012-12-11 17:56:00
1:30 PM,69.8,60.8,73,29.96,10.0,NNW,5.8,-,N/A,,Overcast,340,2012-12-11 18:30:00
1:49 PM,69.8,60.8,73,29.96,10.0,WNW,4.6,-,N/A,,Overcast,290,2012-12-11 18:49:00
1:56 PM,68.0,60.1,76,29.95,10.0,NW,3.5,-,N/A,,Mostly Cloudy,310,2012-12-11 18:56:00
2:56 PM,68.0,60.1,76,29.96,10.0,North,6.9,-,N/A,,Overcast,350,2012-12-11 19:56:00
3:56 PM,64.9,60.1,84,29.99,10.0,North,6.9,-,N/A,,Overcast,350,2012-12-11 20:56:00
4:29 PM,64.4,59.0,83,29.99,9.0,North,5.8,-,0.00,Rain,Light Rain,350,2012-12-11 21:29:00
4:49 PM,62.6,59.0,88,29.99,7.0,Calm,Calm,-,0.01,Rain,Light Rain,0,2012-12-11 21:49:00
4:56 PM,63.0,59.0,87,29.99,7.0,North,5.8,-,0.01,Rain,Light Rain,350,2012-12-11 21:56:00
5:10 PM,62.6,59.0,88,30.00,7.0,North,5.8,-,0.01,Rain,Light Rain,350,2012-12-11 22:10:00
5:17 PM,62.6,59.0,88,29.99,8.0,North,6.9,-,0.01,Rain,Light Rain,350,2012-12-11 22:17:00
5:47 PM,62.6,59.0,88,30.00,8.0,NNW,4.6,-,0.02,Rain,Light Rain,340,2012-12-11 22:47:00
5:56 PM,61.0,59.0,93,30.00,8.0,Calm,Calm,-,0.02,Rain,Light Rain,0,2012-12-11 22:56:00
6:56 PM,61.0,59.0,93,30.01,9.0,Calm,Calm,-,0.00,,Overcast,0,2012-12-11 23:56:00
7:07 PM,62.6,59.0,88,30.02,9.0,Calm,Calm,-,N/A,,Overcast,0,2012-12-12 00:07:00
7:56 PM,62.1,59.0,90,30.03,7.0,NNW,3.5,-,N/A,,Overcast,340,2012-12-12 00:56:00
8:56 PM,62.1,57.9,86,30.06,10.0,Calm,Calm,-,N/A,,Overcast,0,2012-12-12 01:56:00
9:56 PM,62.1,57.9,86,30.06,10.0,NNW,5.8,-,N/A,,Overcast,340,2012-12-12 02:56:00
10:56 PM,60.1,55.9,86,30.08,10.0,North,4.6,-,N/A,,Overcast,350,2012-12-12 03:56:00
11:56 PM,60.1,55.0,83,30.08,10.0,North,3.5,-,N/A,,Overcast,350,2012-12-12 04:56:00